Regional Weather Roundup
Issued by NWS

Home | Current Version | Previous Version | Text Only | Print | Product List | Glossary Off
Versions: 1 2 3 4 5 6 7 8 9 10 11 12 13 14 15 16 17 18 19 20 21 22 23 24 25 26 27 28 29 30 31 32 33 34 35 36 37 38 39 40 41 42 43 44 45 46 47 48 49 50

000
ASUS45 KABQ 251101
RWRNM
WEATHER ROUNDUP FOR NEW MEXICO
NATIONAL WEATHER SERVICE ALBUQUERQUE NM
500 AM MDT SAT APR 25 2015

NOTE: "FAIR" MEANS FEW OR NO CLOUDS BELOW 12,000 FEET AGL WITH NO
       SIGNIFICANT WEATHER OR OBSTRUCTIONS TO VISION.

      THIS PRODUCT IS RELEASED AS TWO VERSIONS.  ONE VERSION NEAR
      THE TOP OF THE HOUR CONTAINING PRELIMINARY DATA FROM ALBUQUERQUE
      AND OTHER STATIONS.  A FINAL VERSION WITH ADDITIONAL DATA IS
      ISSUED ABOUT 10 MINUTES AFTER THE HOUR.

NMZ501-503-504-510>518-251200-
NORTHWEST PLATEAU/NORTHCENTRAL MOUNTAINS

CITY           SKY/WX    TMP DP  RH WIND       PRES   REMARKS
FARMINGTON     MOCLDY    42  35  76 E8        29.92S
LOS ALAMOS     MOCLDY    43  32  63 E3        29.97S
SANTA FE       CLEAR     39  30  70 W5        29.95S
TAOS           MOCLDY    34  21  60 CALM      29.97R
ANGEL FIRE     CLOUDY    36  31  83 SW13      29.97R WCI  27

$$
NMZ402-403-502-505>509-251200-
WESTCENTRAL MOUNTAINS/SOUTHWEST MOUNTAINS

CITY           SKY/WX    TMP DP  RH WIND       PRES   REMARKS
GALLUP         PTCLDY    38  34  85 CALM      29.99F
GRANTS         MOCLDY    42  33  72 CALM      30.01F
SILVER CITY      N/A     41  32  70 NW12      30.02S

$$
NMZ407-409-411-412-251200-
SOUTHERN DESERTS

CITY           SKY/WX    TMP DP  RH WIND       PRES   REMARKS
LORDSBURG      FAIR      43  30  61 CALM      29.98S
DEMING         CLEAR     45  32  60 W9        29.98S
LAS CRUCES     CLEAR     44  30  57 W8        29.99R
ALAMOGORDO     CLEAR     48  28  46 SE6       29.95R
T OR C         CLEAR     48  31  51 NW8       29.95S

$$
NMZ519>523-251200-
CENTRAL VALLEYS/CENTRAL HIGHLANDS

CITY           SKY/WX    TMP DP  RH WIND       PRES   REMARKS
ALBUQUERQUE    PTCLDY    48  33  56 S7        29.97S
DOUBLE EAGLE   CLEAR     41  31  69 NE3       29.98R
MORIARTY ARPT  FAIR      42  29  61 W6        29.96S
CLINES CORNERS CLEAR     36  29  75 W15       29.95S WCI  27
BELEN          FAIR      45  33  62 SE3       29.97R
SOCORRO        FAIR      46  31  54 E7        29.96R

$$
NMZ524>526-539-540-251200-
SOUTHCENTRAL MOUNTAINS

CITY           SKY/WX    TMP DP  RH WIND       PRES   REMARKS
RUIDOSO        NOT AVBL

$$
NMZ527>531-251200-
NORTHEAST HIGHLANDS/NORTHEAST PLAINS

CITY           SKY/WX    TMP DP  RH WIND       PRES   REMARKS
LAS VEGAS      PTCLDY    37  24  59 W8        29.92R WCI  31
RATON          CLEAR     30  22  72 NE6       29.84R WCI  24
CLAYTON        CLEAR     50  24  36 W14       29.76S

$$
NMZ532>537-251200-
EASTCENTRAL PLAINS

CITY           SKY/WX    TMP DP  RH WIND       PRES   REMARKS
TUCUMCARI      CLEAR     55  32  41 W18       29.79S
CANNON AFB     NOT AVBL
CLOVIS AIRPORT CLEAR     48  30  49 W14       29.84S

$$
NMZ028-029-538-251200-
SOUTHEAST PLAINS

CITY           SKY/WX    TMP DP  RH WIND       PRES   REMARKS
ROSWELL        CLEAR     51  32  48 NW6       29.89R
ARTESIA        CLEAR     50  30  46 W10       29.91R
CARLSBAD       CLEAR     54  30  40 W8        29.89R
HOBBS          CLEAR     50  30  46 W9        29.90R


$$


USA.gov is the U.S. government's official web portal to all federal, state and local government web resources and services.